Location: Newark
(13.8117°N, 3.6025°W)
Time: 17:58:03
(UTC+00:00)

Vanguard 2 - Pass Details

Date: 28 August 2019
Orbit: 554 x 2937 km, 32.9° (Epoch: 14 October)

Event Time Altitude Azimuth Distance (km) Brightness Sun altitude
Rises 13:15:08 0° 314° (NW) 3,246 10.9 74.9°
Reaches altitude 10° 13:18:24 10° 338° (NNW) 2,620 10.4 74.1°
Maximum altitude 13:22:07 16° 15° (NNE) 2,591 10.4 73.2°
Drops below altitude 10° 13:26:51 10° 49° (NE) 3,495 10.9 72.1°
Sets 13:32:26 0° 69° (ENE) 5,051 11.5 70.8°
